TimeEDT,TemperatureF,Dew PointF,Humidity,Sea Level PressureIn,VisibilityMPH,Wind Direction,Wind SpeedMPH,Gust SpeedMPH,PrecipitationIn,Events,Conditions,WindDirDegrees,DateUTC
12:15 AM,71.6,69.8,94,30.18,10.0,East,4.6,-,N/A,,Overcast,100,2012-10-04 04:15:00
12:35 AM,71.6,69.8,94,30.19,10.0,Calm,Calm,-,N/A,,Overcast,0,2012-10-04 04:35:00
12:55 AM,71.6,69.8,94,30.18,10.0,East,3.5,-,N/A,,Overcast,90,2012-10-04 04:55:00
1:15 AM,71.6,69.8,94,30.18,10.0,East,5.8,-,N/A,,Overcast,100,2012-10-04 05:15:00
1:35 AM,71.6,69.8,94,30.18,10.0,East,3.5,-,N/A,,Overcast,100,2012-10-04 05:35:00
1:55 AM,71.6,69.8,94,30.18,10.0,Calm,Calm,-,N/A,,Overcast,0,2012-10-04 05:55:00
2:15 AM,71.6,69.8,94,30.18,10.0,East,3.5,-,N/A,,Overcast,90,2012-10-04 06:15:00
2:35 AM,71.6,69.8,94,30.16,10.0,Calm,Calm,-,N/A,,Overcast,0,2012-10-04 06:35:00
2:55 AM,71.6,69.8,94,30.15,10.0,Calm,Calm,-,N/A,,Overcast,0,2012-10-04 06:55:00
3:15 AM,71.6,69.8,94,30.15,10.0,Calm,Calm,-,N/A,,Scattered Clouds,0,2012-10-04 07:15:00
3:35 AM,69.8,69.8,100,30.15,10.0,Calm,Calm,-,N/A,,Clear,0,2012-10-04 07:35:00
4:15 AM,71.6,69.8,94,30.14,10.0,East,3.5,-,N/A,,Clear,80,2012-10-04 08:15:00
4:35 AM,71.6,69.8,94,30.14,10.0,ENE,3.5,-,N/A,,Clear,60,2012-10-04 08:35:00
4:55 AM,69.8,69.8,100,30.15,10.0,North,3.5,-,N/A,,Clear,10,2012-10-04 08:55:00
5:15 AM,69.8,69.8,100,30.16,10.0,NE,3.5,-,N/A,,Clear,40,2012-10-04 09:15:00
5:35 AM,69.8,68.0,94,30.16,10.0,ENE,3.5,-,N/A,,Clear,60,2012-10-04 09:35:00
5:55 AM,69.8,68.0,94,30.17,10.0,Calm,Calm,-,0.01,,Clear,0,2012-10-04 09:55:00
6:15 AM,69.8,68.0,94,30.18,10.0,Calm,Calm,-,N/A,,Clear,0,2012-10-04 10:15:00
6:35 AM,69.8,68.0,94,30.18,5.0,Calm,Calm,-,N/A,,Clear,0,2012-10-04 10:35:00
6:55 AM,69.8,68.0,94,30.18,5.0,Calm,Calm,-,N/A,,Clear,0,2012-10-04 10:55:00
7:15 AM,69.8,68.0,94,30.19,7.0,Calm,Calm,-,N/A,,Clear,0,2012-10-04 11:15:00
7:35 AM,69.8,68.0,94,30.19,5.0,Calm,Calm,-,N/A,,Clear,0,2012-10-04 11:35:00
7:55 AM,69.8,68.0,94,30.19,5.0,Calm,Calm,-,N/A,,Clear,0,2012-10-04 11:55:00
8:15 AM,71.6,69.8,94,30.20,7.0,Calm,Calm,-,N/A,,Clear,0,2012-10-04 12:15:00
8:35 AM,71.6,71.6,100,30.20,10.0,Calm,Calm,-,N/A,,Clear,0,2012-10-04 12:35:00
8:55 AM,73.4,73.4,100,30.20,10.0,Calm,Calm,-,N/A,,Clear,0,2012-10-04 12:55:00
9:15 AM,77.0,73.4,89,30.21,10.0,Calm,Calm,-,N/A,,Scattered Clouds,0,2012-10-04 13:15:00
9:35 AM,78.8,75.2,89,30.21,10.0,Calm,Calm,-,N/A,,Scattered Clouds,0,2012-10-04 13:35:00
9:55 AM,78.8,77.0,94,30.21,10.0,Calm,Calm,-,N/A,,Clear,0,2012-10-04 13:55:00
10:15 AM,80.6,77.0,89,30.20,10.0,Calm,Calm,-,N/A,,Scattered Clouds,0,2012-10-04 14:15:00
10:35 AM,80.6,77.0,89,30.20,10.0,SE,3.5,-,N/A,,Scattered Clouds,140,2012-10-04 14:35:00
10:55 AM,82.4,77.0,84,30.20,10.0,ESE,5.8,-,N/A,,Mostly Cloudy,120,2012-10-04 14:55:00
11:15 AM,82.4,77.0,84,30.20,10.0,SE,3.5,-,N/A,,Mostly Cloudy,140,2012-10-04 15:15:00
11:35 AM,86.0,75.2,70,30.20,10.0,East,5.8,-,N/A,,Scattered Clouds,100,2012-10-04 15:35:00
11:55 AM,86.0,73.4,66,30.20,10.0,ESE,6.9,-,N/A,,Scattered Clouds,120,2012-10-04 15:55:00
12:15 PM,87.8,71.6,58,30.20,10.0,East,6.9,-,N/A,,Clear,100,2012-10-04 16:15:00
12:35 PM,87.8,71.6,58,30.19,10.0,SSE,5.8,-,N/A,,Clear,150,2012-10-04 16:35:00
12:55 PM,87.8,71.6,58,30.18,10.0,SE,3.5,-,N/A,,Scattered Clouds,140,2012-10-04 16:55:00
1:15 PM,87.8,71.6,58,30.17,10.0,SSW,3.5,-,N/A,,Scattered Clouds,200,2012-10-04 17:15:00
1:35 PM,89.6,69.8,52,30.16,10.0,SE,4.6,-,N/A,,Scattered Clouds,130,2012-10-04 17:35:00
1:55 PM,89.6,69.8,52,30.16,10.0,Calm,Calm,-,N/A,,Mostly Cloudy,0,2012-10-04 17:55:00
2:35 PM,91.4,68.0,46,30.13,10.0,Calm,Calm,-,N/A,,Scattered Clouds,0,2012-10-04 18:35:00
2:55 PM,89.6,68.0,49,30.12,10.0,Calm,Calm,-,N/A,,Scattered Clouds,0,2012-10-04 18:55:00
3:15 PM,91.4,69.8,49,30.10,10.0,Calm,Calm,-,N/A,,Mostly Cloudy,0,2012-10-04 19:15:00
3:35 PM,89.6,68.0,49,30.09,10.0,Calm,Calm,-,N/A,,Mostly Cloudy,0,2012-10-04 19:35:00
3:55 PM,91.4,69.8,49,30.08,10.0,Calm,Calm,-,N/A,,Scattered Clouds,0,2012-10-04 19:55:00
4:15 PM,87.8,69.8,55,30.08,10.0,Calm,Calm,-,N/A,,Scattered Clouds,0,2012-10-04 20:15:00
4:35 PM,87.8,69.8,55,30.10,10.0,Calm,Calm,-,N/A,,Scattered Clouds,0,2012-10-04 20:35:00
4:55 PM,86.0,69.8,58,30.09,10.0,NE,12.7,-,N/A,,Mostly Cloudy,50,2012-10-04 20:55:00
5:15 PM,80.6,69.8,70,30.10,10.0,Calm,Calm,-,N/A,Rain-Thunderstorm,Light Thunderstorms and Rain,0,2012-10-04 21:15:00
5:35 PM,73.4,68.0,83,30.15,5.0,South,20.7,32.2,0.01,Rain-Thunderstorm,Light Thunderstorms and Rain,190,2012-10-04 21:35:00
5:55 PM,71.6,68.0,88,30.19,3.0,South,13.8,19.6,0.15,Rain-Thunderstorm,Heavy Thunderstorms and Rain,170,2012-10-04 21:55:00
6:15 PM,69.8,68.0,94,30.17,3.0,Calm,Calm,-,0.25,Rain-Thunderstorm,Thunderstorms and Rain,0,2012-10-04 22:15:00
6:35 PM,71.6,69.8,94,30.15,10.0,Calm,Calm,-,0.28,Rain-Thunderstorm,Light Thunderstorms and Rain,0,2012-10-04 22:35:00
6:55 PM,71.6,69.8,94,30.16,10.0,North,4.6,-,0.28,Rain-Thunderstorm,Light Thunderstorms and Rain,360,2012-10-04 22:55:00
7:15 PM,71.6,69.8,94,30.16,10.0,NNE,5.8,-,0.01,Rain-Thunderstorm,Light Thunderstorms and Rain,20,2012-10-04 23:15:00
7:35 PM,69.8,69.8,100,30.18,7.0,NNE,10.4,-,0.05,Rain-Thunderstorm,Thunderstorms and Rain,30,2012-10-04 23:35:00
7:55 PM,71.6,69.8,94,30.19,10.0,NE,12.7,17.3,0.09,Rain,Rain,40,2012-10-04 23:55:00
8:15 PM,69.8,69.8,100,30.18,10.0,NE,11.5,-,0.04,Rain-Thunderstorm,Light Thunderstorms and Rain,40,2012-10-05 00:15:00
8:35 PM,69.8,69.8,100,30.18,10.0,NNE,6.9,-,0.07,Rain,Rain,30,2012-10-05 00:35:00
8:55 PM,69.8,69.8,100,30.17,7.0,NE,6.9,-,0.11,Rain,Rain,50,2012-10-05 00:55:00
9:15 PM,69.8,69.8,100,30.15,10.0,NNE,6.9,-,0.01,Rain,Light Rain,30,2012-10-05 01:15:00
9:35 PM,69.8,68.0,94,30.15,10.0,NE,4.6,-,0.01,,Clear,40,2012-10-05 01:35:00
9:55 PM,69.8,68.0,94,30.15,10.0,NNE,5.8,-,0.01,,Clear,30,2012-10-05 01:55:00
10:15 PM,69.8,68.0,94,30.16,10.0,NNE,5.8,-,N/A,,Clear,20,2012-10-05 02:15:00
10:35 PM,69.8,68.0,94,30.16,10.0,NNE,3.5,-,N/A,,Clear,20,2012-10-05 02:35:00
10:55 PM,69.8,68.0,94,30.17,10.0,Calm,Calm,-,N/A,,Clear,0,2012-10-05 02:55:00
11:15 PM,69.8,68.0,94,30.17,10.0,Calm,Calm,-,N/A,,Clear,0,2012-10-05 03:15:00
11:35 PM,69.8,68.0,94,30.16,10.0,Calm,Calm,-,N/A,,Clear,0,2012-10-05 03:35:00
11:55 PM,69.8,68.0,94,30.16,10.0,Calm,Calm,-,N/A,,Clear,0,2012-10-05 03:55:00